Hourly Data Report for October 08, 2015

All times are specified in Local Standard Time (LST). Add 1 hour to adjust for Daylight Saving Time where and when it is observed.

KUGLUKTUK A
NUNAVUT

67°49'00.000" N
115°08'38.000" W
22.60 m
2300903
71938
YCO

Download Data

Hourly Data (October 2015)
Hourly Data Report for October 8, 2015
Temp Definition
°C
Dew Point Temp Definition
°C
Rel Hum Definition
%
Wind Dir Definition
10's deg

Wind Spd Definition
km/h
Visibility Definition
km
Stn Press Definition
kPa
Hmdx Definition


Wind Chill Definition


Weather Definition


TIME
00:00 Legend Double Dagger -6.1 -8.5 83 26 26 24.1 101.57   -14 LegendNANA
01:00 Legend Double Dagger -6.6 -8.9 84 26 26 24.1 101.60   -15 LegendNANA
02:00
03:00 Legend Double Dagger -6.7 -9.0 84 26 25 24.1 101.67   -15 LegendNANA
04:00 Legend Double Dagger -6.7 -9.1 83 26 28 24.1 101.68   -15 LegendNANA
05:00 Legend Double Dagger -7.1 -9.4 84 27 23 24.1 101.73   -15 Clear
06:00 Legend Double Dagger -7.2 -9.6 83 27 26 24.1 101.76   -15 LegendNANA
07:00 Legend Double Dagger -7.2 -9.9 81 27 27 24.1 101.77   -15 LegendNANA
08:00 Legend Double Dagger -7.9 -10.2 84 27 30 24.1 101.77   -17 Mainly Clear
09:00 Legend Double Dagger -7.0 -9.7 81 26 29 24.1 101.79   -15 LegendNANA
10:00 Legend Double Dagger -5.4 -9.3 74 26 28 24.1 101.80   -13 LegendNANA
11:00 Legend Double Dagger -4.1 -8.8 70 27 28 24.1 101.83   -12 Mostly Cloudy
12:00 Legend Double Dagger -3.1 -8.4 67 27 27 24.1 101.81   -10 LegendNANA
13:00 Legend Double Dagger -2.9 -8.6 65 27 30 24.1 101.83   -10 LegendNANA
14:00 Legend Double Dagger -2.3 -8.2 64 28 28 24.1 101.82   -9 Mostly Cloudy
15:00 Legend Double Dagger -2.3 -8.6 62 29 25 24.1 101.82   -9 LegendNANA
16:00 Legend Double Dagger -2.3 -9.7 57 29 22 24.1 101.82   -8 LegendNANA
17:00 Legend Double Dagger -2.6 -9.1 61 26 17 24.1 101.79   -8 Mostly Cloudy
18:00 Legend Double Dagger -4.7 -10.3 65 25 23 24.1 101.74   -12 LegendNANA
19:00 Legend Double Dagger -5.9 -9.8 74 25 24 24.1 101.72   -13 LegendNANA
20:00 Legend Double Dagger -7.1 -10.2 79 25 22 24.1 101.70   -15 Clear
21:00 Legend Double Dagger -8.3 -10.5 84 24 22 24.1 101.68   -16 LegendNANA
22:00 Legend Double Dagger -8.4 -11.1 81 25 27 24.1 101.66   -17 LegendNANA
23:00 Legend Double Dagger -9.0 -11.5 82 25 23 24.1 101.65   -17 Clear

Notes on Data Quality.

Legend

  • E = Estimated
  • M = Missing
  • NA = Not Available
  • ‡ = Partner data that is not subject to review by the National Climate Archives
Date modified: